This is the latest recevied weather packets stored in our database for station/object KC5TXI. If no packets are shown the sender has not sent any weather packets the latest 10 day(s).
| Time | Temp. | Humidity | Pressure | Rain* | Wind** | Luminosity | Snow |
|---|---|---|---|---|---|---|---|
| 1777736282 | 20.56° C | 54% | 1023.7 hPa | 0 mm | - | 547 W/m² | - |
| 1777735978 | 20.56° C | 55% | 1024 hPa | 0 mm | - | 589 W/m² | - |
| 1777735676 | 20° C | 56% | 1023.8 hPa | 0 mm | - | 574 W/m² | - |
| 1777735373 | 19.44° C | 60% | 1023.8 hPa | 0 mm | - | 534 W/m² | - |
| 1777735071 | 19.44° C | 60% | 1023.8 hPa | 0 mm | - | 509 W/m² | - |
| 1777734768 | 19.44° C | 62% | 1023.7 hPa | 0 mm | - | 498 W/m² | - |
| 1777734466 | 18.89° C | 65% | 1024 hPa | 0 mm | - | 470 W/m² | - |
| 1777733858 | 18.33° C | 69% | 1023.8 hPa | 0 mm | - | 415 W/m² | - |
| 1777733251 | 18.33° C | 71% | 1023.8 hPa | 0 mm | - | 408 W/m² | - |
| 1777732644 | 17.22° C | 74% | 1023.6 hPa | 0 mm | - | 360 W/m² | - |
| 1777732342 | 17.78° C | 74% | 1023.6 hPa | 0 mm | - | 347 W/m² | - |
| 1777732039 | 17.22° C | 76% | 1023.6 hPa | 0 mm | - | 324 W/m² | - |
| 1777731730 | 16.67° C | 76% | 1023.8 hPa | 0 mm | - | 301 W/m² | - |
| 1777731427 | 16.67° C | 76% | 1023.8 hPa | 0 mm | - | 324 W/m² | - |
| 1777731125 | 16.67° C | 79% | 1023.6 hPa | 0 mm | - | 159 W/m² | - |
| 1777730823 | 15.56° C | 81% | 1023.5 hPa | 0 mm | - | 142 W/m² | - |
| 1777730520 | 15° C | 86% | 1023.3 hPa | 0 mm | - | 140 W/m² | - |
| 1777730215 | 14.44° C | 92% | 1023.5 hPa | 0 mm | - | 155 W/m² | - |
| 1777729913 | 13.89° C | 96% | 1023.4 hPa | 0 mm | - | 55 W/m² | - |
| 1777729609 | 13.33° C | 98% | 1023.3 hPa | 0 mm | - | 54 W/m² | - |
| 1777729306 | 12.78° C | 99% | 1023.6 hPa | 0 mm | - | 118 W/m² | - |
| 1777729003 | 12.78° C | 99% | 1023.4 hPa | 0 mm | - | 52 W/m² | - |
| 1777728699 | 12.78° C | 99% | 1023.2 hPa | 0 mm | - | 67 W/m² | - |
| 1777728396 | 12.22° C | 99% | 1023.1 hPa | 0 mm | - | 110 W/m² | - |
| 1777728093 | 11.67° C | 99% | 1023.2 hPa | 0 mm | - | 90 W/m² | - |
* Rain latest hour (hover to see other rain measurements)
** Current wind speed in m/s (hover to see current wind gust speed)